Hourly Data Report for October 05, 2013

All times are specified in Local Standard Time (LST). Add 1 hour to adjust for Daylight Saving Time where and when it is observed.

QIKIQTARJUAQ A
NUNAVUT

67°32'48.000" N
64°01'54.000" W
5.50 m
2400577
YVM

Download Data

Hourly Data (October 2013)
Hourly Data Report for October 5, 2013
Temp Definition
°C
Dew Point Temp Definition
°C
Rel Hum Definition
%
Wind Dir Definition
10's deg

Wind Spd Definition
km/h
Visibility Definition
km
Stn Press Definition
kPa
Hmdx Definition


Wind Chill Definition


Weather Definition


TIME
00:00 Legend Double Dagger -1.5 -4.5 80 32 15 16.1 101.49   -6 LegendNANA
01:00 Legend Double Dagger -1.6 -4.7 79 35 18 16.1 101.50   -7 LegendNANA
02:00 Legend Double Dagger -1.5 -5.5 74 35 15 16.1 101.50   -6 LegendNANA
03:00 Legend Double Dagger -1.5 -5.2 76 33 21 16.1 101.52   -7 LegendNANA
04:00 Legend Double Dagger -1.8 -5.4 76 32 17 16.1 101.56   -7 LegendNANA
05:00 Legend Double Dagger -1.5 -6.0 72 30 21 16.1 101.57   -7 LegendNANA
06:00 Legend Double Dagger -1.6 -7.0 67 29 18 16.1 101.56   -7 LegendNANA
07:00 Legend Double Dagger -1.4 -6.8 67 29 18 16.1 101.57   -7 LegendNANA
08:00 Legend Double Dagger -1.3 -7.4 64 31 17 16.1 101.58   -6 LegendNANA
09:00 Legend Double Dagger -1.6 -7.5 65 19 13 16.1 101.58   -6 LegendNANA
10:00 Legend Double Dagger -3.1 -8.1 68 17 11 16.1 101.58   -7 LegendNANA
11:00 Legend Double Dagger -3.2 -8.7 66 13 13 16.1 101.58   -8 LegendNANA
12:00 Legend Double Dagger -3.3 -8.3 69 17 11 16.1 101.60   -8 LegendNANA
13:00 Legend Double Dagger -4.1 -8.4 72 14 5 16.1 101.63   -6 LegendNANA
14:00 Legend Double Dagger -2.4 -7.6 67 28 11 16.1 101.65   -6 LegendNANA
15:00 Legend Double Dagger -4.8 -9.1 72 19 9 16.1 101.68   -9 LegendNANA
16:00 Legend Double Dagger -6.7 -10.0 77 14 8 16.1 101.73   -11 LegendNANA
17:00 Legend Double Dagger -4.8 -8.7 74 17 5 16.1 101.76   -7 LegendNANA
18:00 Legend Double Dagger -5.1 -8.3 78 19 11 16.1 101.76   -10 LegendNANA
19:00 Legend Double Dagger -4.6 -8.6 74 20 13 16.1 101.76   -10 LegendNANA
20:00 Legend Double Dagger -6.2 -9.5 78 14 5 16.1 101.76   -9 LegendNANA
21:00 Legend Double Dagger -6.2 -9.7 76 17 11 16.1 101.75   -11 LegendNANA
22:00 Legend Double Dagger -6.3 -9.7 77 14 13 16.1 101.75   -12 LegendNANA
23:00 Legend Double Dagger -6.9 -10.4 76 15 4 16.1 101.75   -9 LegendNANA

Notes on Data Quality.

Legend

  • E = Estimated
  • M = Missing
  • NA = Not Available
  • ‡ = Partner data that is not subject to review by the National Climate Archives
Date modified: